SONATE
1 44400U 19038Q   25143.58692462  .00181879  00000-0  72698-3 0  9999
2 44400  97.6904 168.3785 0002327 240.0384 120.0655 15.86084590326873
Taurus 1
1 44530U 19059C   25143.79668797  .00005277  00000-0  97936-3 0  9992
2 44530  98.6046 282.3976 0010582  93.2160 267.0253 14.65637894301489
Duchifat 3
1 44854U 19089C   25143.89611099  .00038117  00000-0  78114-3 0  9994
2 44854  36.9427 101.1607 0003342 218.8117 141.2399 15.45129994300364
TO-108
1 44881U 19093C   25143.85587759  .00000820  00000-0  10089-3 0  9997
2 44881  97.7926 219.8550 0012373 288.3055  71.6813 14.85566442293593
FloripaSat 1
1 44885U 19093G   25143.78610518  .00004867  00000-0  41386-3 0  9992
2 44885  97.8155 231.3531 0008770 255.1635 104.8616 14.98283617294238
RS-44
1 44909U 19096E   25143.51073979 -.00000003  00000-0 -50112-4 0  9995
2 44909  82.5224 238.6169 0216890 335.7723  23.3295 12.79740548252507
UPMSat 2
1 46276U 20061E   25143.45048982  .00051706  00000-0  49717-3 0  9999
2 46276  97.2454 217.2856 0001712 164.7472 195.3840 15.66426076262789
SALSAT
1 46495U 20068K   25143.46361200  .00005725  00000-0  25007-3 0  9997
2 46495  97.8591 120.7057 0010225 214.0103 146.0478 15.22503758255923
CubeSX-Sirius-HSE
1 47951U 21022V   25143.79453210  .00473640  91024-4  13136-2 0  9999
2 47951  97.4103  56.7465 0005172 122.0429 238.1349 15.93774402231187
CubeSX-HSE
1 47952U 21022W   25143.80531968  .00463816  87584-4  12646-2 0  9994
2 47952  97.4143  57.0282 0004575 129.9607 230.2071 15.94103651231204
GRBAlpha
1 47959U 21022AD  25143.80384550  .00376434  55929-4  11504-2 0  9993
2 47959  97.4131  57.0807 0004561 121.7078 238.4641 15.91910146230022
TUBIN
1 48900U 21059X   25143.85173820  .00037836  00000-0  48567-3 0  9997
2 48900  97.6738 311.7399 0002506 278.5808  81.5163 15.59040279217430
LEDSAT
1 49069U 21073D   25143.75277086  .00057400  00000-0  74767-3 0  9998
2 49069  97.3902 224.6155 0011481 141.7140 218.4933 15.58483705208813
CUTE
1 49263U 21088D   25143.73008096  .00010958  00000-0  22397-3 0  9990
2 49263  97.4518 219.5046 0006586 304.8663  55.1966 15.46308347201828
TeikyoSat 4
1 49396U 21102B   25143.55978265  .00001476  00000-0  10093-3 0  9993
2 49396  97.4113 182.6024 0012375 184.2021 175.9105 15.07567105193982
Z-Sat
1 49399U 21102E   25143.83498452  .00003336  00000-0  18517-3 0  9998
2 49399  97.3814 185.8608 0018954 157.2630 202.9445 15.14260869194445
KOSEN 1
1 49402U 21102H   25143.68817966  .00005678  00000-0  26535-3 0  9991
2 49402  97.3720 189.0069 0017406 134.6476 225.6182 15.20048756194728
HO-113
1 50466U 21131B   25143.88554876  .00000472  00000-0  16124-3 0  9995
2 50466  98.5094 233.3210 0004419 169.9985 190.1293 14.40793114179047
IRIS-A
1 51044U 22002BN  25143.73965559  .00481551  10107-3  10022-2 0  9997
2 51044  97.3164 223.9517 0008076 230.5112 129.5453 15.99034815187213
Foresail-1
1 52766U 22057AL  25143.38975902  .00219412  00000-0  80374-3 0  9994
2 52766  97.6021 293.3769 0005248 265.3782  94.6890 15.87778204167160
SNUGLITE 2
1 52899U 22065F   25143.39400146  .00001037  00000-0  21066-3 0  9999
2 52899  98.1664 285.5375 0008155 158.7246 201.4296 14.63170344153978
UmKA 1 (RS40S)
1 57172U 23091G   25143.83347383  .00005155  00000-0  27762-3 0  9994
2 57172  97.5594 199.3038 0015210  38.5688 321.6627 15.15165289104941
CubeBel-2 (EU11S)
1 57175U 23091K   25143.84025003  .00009064  00000-0  43563-3 0  9990
2 57175  97.5593 200.3570 0013116  47.8139 312.4207 15.18977063105019
VERONIKA
1 58261U 23174F   25143.80210172  .00105027  00000-0  10230-2 0  9998
2 58261  97.4132 229.0277 0005058 138.4162 221.7483 15.65900193 86057
ENSO
1 58470U 23185J   25143.84107967  .00044471  00000-0  68492-3 0  9992
2 58470  97.3748 218.4457 0008952 142.9270 217.2603 15.54025966 82435
EIRSAT-1
1 58472U 23185L   25143.83670396  .00080861  00000-0  84846-3 0  9998
2 58472  97.3711 220.0727 0007149 151.2749 208.8905 15.64083235 82544
SONATE-2
1 59112U 24043Q   25143.61612371  .00013628  00000-0  40019-3 0  9990
2 59112  97.5107 274.4636 0011873 169.6686 190.4804 15.35194071 67738
MO-122
1 60209U 24125G   25143.56891193  .00013924  00000-0  40337-3 0  9997
2 60209  97.2819 355.3845 0018783 193.4946 166.5798 15.35499927 49347
GRBBeta
1 60237U 24128C   25143.69939243  .00003574  00000-0  27650-3 0  9997
2 60237  61.9897 138.4074 0050691  53.5934 306.9816 15.02463260 47662
Curium One
1 60242U 24128H   25143.43080067  .00006175  00000-0  43759-3 0  9994
2 60242  61.9796 137.8814 0050667  49.3062 311.2416 15.04813111 47659
ROBUSTA-3A
1 60243U 24128J   25143.69406669  .00004531  00000-0  32966-3 0  9995
2 60243  61.9865 137.7315 0049334  47.0708 313.4506 15.04368853 47688
CatSat
1 60246U 24125J   25143.16592640  .00008497  00000-0  28690-3 0  9996
2 60246  97.2611 354.3956 0043817 154.3754 205.9672 15.29978569 47321
HYPERVIEW-1G (RS66S)
1 61772U 24199AP  25143.85895634  .00016842  00000-0  49980-3 0  9995
2 61772  97.3566  12.7588 0011972 248.6966 111.3000 15.34808868 74393
AO-123
1 61781U 24199AY  25143.81799753  .00005386  00000-0  19854-3 0  9994
2 61781  97.3577  11.7771 0014116 255.5923 104.3751 15.28137597 74326
ZIMSAT 2
1 61783U 24199BA  25143.83458741  .00029610  00000-0  75344-3 0  9999
2 61783  97.3546  13.2272 0011962 244.4906 115.5103 15.39473489 77571
HADES-R (SO-124)
1 62690U 25009CK  25143.45841895  .00026984  00000-0  98948-3 0  9998
2 62690  97.4095 224.3466 0004820 148.5990 211.5538 15.27942588 19530
HYDRA-T
1 62692U 25009CM  25143.44654677  .00028140  00000-0  10247-2 0  9990
2 62692  97.4095 224.3614 0004553 146.1827 213.9704 15.28164114 19536
JINJUSat 1B
1 63210U 25052A   25143.28691546  .00008686  00000-0  40323-3 0  9995
2 63210  97.4445  37.6322 0005528  44.0445 316.1230 15.20249447 10624
NUSHSAT 1
1 63211U 25052B   25143.21834130  .00009590  00000-0  44247-3 0  9991
2 63211  97.4434  37.5627 0005751  48.7528 311.4202 15.20429571 10615
TEVEL2-4
1 63213U 25052D   25143.49195671  .00009341  00000-0  43451-3 0  9993
2 63213  97.4352  37.7361 0005271  62.9670 297.2102 15.20156735 10659
TEVEL2-5
1 63214U 25052E   25143.62400546  .00009204  00000-0  42835-3 0  9992
2 63214  97.4352  37.8656 0005257  62.9223 297.2548 15.20144197 10671
TEVEL2-6
1 63215U 25052F   25143.42821251  .00009069  00000-0  42267-3 0  9999
2 63215  97.4354  37.6695 0005346  63.7097 296.4687 15.20100287 10646
TEVEL2-1
1 63217U 25052H   25143.43688582  .00009117  00000-0  42740-3 0  9990
2 63217  97.4331  37.6364 0005707  72.1353 288.0504 15.19891897 10643
TEVEL2-2
1 63218U 25052J   25143.63468723  .00009646  00000-0  45200-3 0  9997
2 63218  97.4330  37.8310 0005718  72.1805 288.0054 15.19894023 10677
TEVEL2-3
1 63219U 25052K   25143.63475471  .00009503  00000-0  44537-3 0  9990
2 63219  97.4329  37.8307 0005711  71.9599 288.2258 15.19889595 10678
TEVEL2-8
1 63237U 25052AD  25143.42335569  .00008628  00000-0  41851-3 0  9993
2 63237  97.4392  37.5589 0010384  78.3042 281.9356 15.18695240 10639
TEVEL2-9
1 63238U 25052AE  25143.42506445  .00008589  00000-0  41725-3 0  9993
2 63238  97.4397  37.5580 0010486  78.0516 282.1893 15.18641965 10636
TEVEL2-7
1 63239U 25052AF  25143.42662755  .00008511  00000-0  41389-3 0  9992
2 63239  97.4394  37.5551 0010471  78.4881 281.7528 15.18607205 10634
HYDRA-W
1 63490U 25052BL  25143.19755994  .00021204  00000-0  91949-3 0  9994
2 63490  97.4340  37.5107 0014468  76.7728 283.5121 15.22287581 10615
HADES-ICM
1 63492U 25052BN  25143.66821070  .00020742  00000-0  90901-3 0  9990
2 63492  97.4348  37.9563 0014734  78.2617 282.0271 15.21928463 10682
